Location: Ostrava
(49.8330°N, 18.2830°E)
Time: 21:30:00
(UTC+02:00)

Lacrosse 5 - Visible Passes

Search period start: 22 May 2017 00:00
Search period end: 01 June 2017 00:00
Orbit: 717 x 723 km, 57.0° (Epoch: 22 May)

Date Brightness Start Highest point End Pass type
(mag) Time Alt. Az. Time Alt. Az. Time Alt. Az.
22 May 2.9 01:32:57 27° SSE 01:33:49 28° SE 01:38:07 10° ENE visible
22 May 2.0 03:12:08 15° WSW 03:16:26 79° NNW 03:21:32 10° NE visible
23 May 3.6 00:41:28 17° ESE 00:41:28 17° ESE 00:44:19 10° E visible
23 May 1.8 02:20:38 27° SW 02:23:23 72° SE 02:28:28 10° ENE visible
23 May 2.8 04:01:46 10° W 04:06:39 45° NNW 04:11:33 10° ENE visible
24 May 2.3 01:29:05 36° S 01:30:28 45° SE 01:35:18 10° ENE visible
24 May 2.4 03:08:24 10° WSW 03:13:25 57° NNW 03:18:27 10° NE visible
25 May 2.9 00:37:28 28° SE 00:37:39 28° SE 00:41:57 10° ENE visible
25 May 1.9 02:16:38 19° WSW 02:20:16 79° NNW 02:25:23 10° NE visible
25 May 3.2 03:59:02 10° WNW 04:03:48 39° N 04:08:34 10° ENE visible
25 May 3.6 23:45:45 16° ESE 23:45:45 16° ESE 23:48:09 10° E visible
26 May 1.8 01:24:55 32° SW 01:27:13 71° SE 01:32:17 10° ENE visible
26 May 2.9 03:05:36 10° W 03:10:29 45° NNW 03:15:23 10° ENE visible
27 May 2.2 00:33:06 38° S 00:34:18 45° SE 00:39:08 10° ENE visible
27 May 2.4 02:12:15 10° WSW 02:17:15 57° NNW 02:22:16 10° NE visible
27 May 3.4 03:56:16 10° WNW 04:00:59 36° N 04:05:42 10° ENE visible
27 May 2.8 23:41:09 28° SE 23:41:29 28° SE 23:45:47 10° ENE visible
28 May 1.9 01:20:18 18° WSW 01:24:06 79° NNW 01:29:12 10° NE visible
28 May 3.2 03:02:51 10° WNW 03:07:37 39° N 03:12:24 10° ENE visible
28 May 3.4 22:49:00 17° ESE 22:49:00 17° ESE 22:51:58 10° E visible
29 May 1.8 00:28:08 25° SW 00:31:03 71° SE 00:36:08 10° ENE visible
29 May 2.9 02:09:25 10° W 02:14:19 45° NNW 02:19:13 10° ENE visible
29 May 3.4 03:53:26 10° WNW 03:58:11 37° N 04:02:54 10° ENE visible
29 May 2.1 23:35:39 26° SSW 23:38:07 45° SE 23:42:58 10° ENE visible
30 May 2.5 01:16:03 10° WSW 01:21:05 58° NNW 01:26:06 10° NE visible
30 May 3.4 03:00:06 10° WNW 03:04:49 37° N 03:09:31 10° ENE visible
30 May 2.8 22:42:36 17° S 22:45:19 28° SE 22:49:36 10° ENE visible
31 May 1.9 00:22:50 10° WSW 00:27:55 79° NNW 00:33:02 10° NE visible
31 May 3.3 02:06:41 10° WNW 02:11:28 39° N 02:16:14 10° ENE visible
31 May 3.3 03:50:30 10° WNW 03:55:20 42° NNE 04:00:10 10° E visible
31 May 3.3 21:49:31 10° SSE 21:52:39 17° ESE 21:55:47 10° E visible
31 May 1.8 23:29:49 10° SW 23:34:53 71° SE 23:39:57 10° ENE visible
